Home   Weather   Warren   Past weeks

Flag for USA Past Weather in Warren, Michigan, USA — Yesterday and Last 2 Weeks

Now
46 °F

Fog.


Feels Like: 41 °F
Forecast: 40 / 54 °F
Wind: 9 mph from Southeast

Location: Detroit City Airport

Current Time: Mar 26, 2017 at 4:43:23 pm

Latest Report: Mar 26, 2017 at 3:53 pm


Visibility: 5 mi

Pressure: 29.94 "Hg

Humidity: 100%

Dew Point: 46 °F

Location of WarrenLocation

Past Weather in Warren — Graph

°F

Warren Temperature Yesterday

Maximum temperature yesterday: 45 °F (at 12:53 am)
Minimum temperature yesterday: 40 °F (at 7:53 am)
Average temperature yesterday: 42 °F

High & Low Weather Summary for the Past Weeks

 TemperatureHumidityPressure
High75 °F (Mar 24, 5:53 pm)100% (Mar 17, 5:19 pm)30.94 "Hg (Mar 17, 5:19 pm)
Low16 °F (Mar 14, 7:53 am)23% (Mar 21, 2:53 pm)29.91 "Hg (Mar 24, 5:53 pm)
Average33 °F72%30.23 "Hg
* Reported Mar 11 1:53 pm — Mar 26 2:53 pm, Warren, Weather by CustomWeather, © 2017

Note: Actual official high and low records may vary slightly from our data, if they occured in-between our weather recording intervals... More about our weather records

Advertising

Warren Weather History for the Previous 24 Hours

Scroll right to see more
 ConditionsComfort  
Time TempWeatherWind HumidityBarometerVisibility
2:53 pm
Sun, Mar 26
46 °FLight rain. Fog.7 mph96%29.96 "Hg5 mi
2:31 pm46 °FLight rain. Fog.8 mph96%29.95 "Hg3 mi
1:53 pm46 °FLight rain. Fog.6 mph96%29.98 "Hg5 mi
12:53 pm45 °FLight rain. Fog.No wind93%30.00 "Hg6 mi
12:27 pm44 °FLight rain. Fog.6 mph96%29.99 "Hg4 mi
11:53 am44 °FLight rain. Overcast.5 mph89%30.04 "Hg10 mi
10:53 am44 °FScattered clouds.12 mph82%30.03 "Hg10 mi
9:53 am42 °FBroken clouds.15 mph85%30.03 "Hg10 mi
9:23 am41 °FBroken clouds.7 mph89%30.03 "Hg10 mi
9:06 am41 °FPartly sunny.8 mph89%30.04 "Hg10 mi
8:38 am40 °FScattered clouds.8 mph93%30.04 "Hg10 mi
6:53 am39 °FOvercast.7 mph93%30.07 "Hg10 mi
6:24 am39 °FMostly cloudy.12 mph93%30.05 "Hg10 mi
5:53 am39 °FPartly cloudy.12 mph93%30.06 "Hg10 mi
5:41 am39 °FMostly cloudy.14 mph89%30.06 "Hg10 mi
4:53 am39 °FClear.12 mph89%30.08 "Hg10 mi
3:53 am39 °FClear.14 mph89%30.10 "Hg10 mi
2:53 am39 °FClear.10 mph89%30.13 "Hg10 mi
1:53 am39 °FClear.12 mph89%30.15 "Hg10 mi
12:53 am39 °FClear.12 mph89%30.17 "Hg10 mi
11:53 pm
Sat, Mar 25
40 °FClear.14 mph86%30.19 "Hg10 mi
10:53 pm40 °FClear.12 mph86%30.19 "Hg10 mi
9:53 pm40 °FPassing clouds.16 mph86%30.21 "Hg10 mi
9:13 pm41 °FPartly cloudy.12 mph86%30.20 "Hg10 mi
9:04 pm41 °FPartly cloudy.15 mph89%30.20 "Hg10 mi
7:53 pm41 °FLow clouds.10 mph93%30.22 "Hg10 mi
7:06 pm42 °FLow clouds.10 mph92%30.21 "Hg10 mi
6:53 pm42 °FOvercast.12 mph92%30.22 "Hg10 mi
5:53 pm43 °FMostly cloudy.13 mph86%30.22 "Hg10 mi
4:53 pm43 °FOvercast.13 mph86%30.23 "Hg10 mi
Weather by CustomWeather, © 2017

See weather overviewHow to use our weather pages